Regional Weather Roundup
Issued by NWS

Home | Current Version | Previous Version | Graphics & Text | Print | Product List | Glossary Off
Versions: 1 2 3 4 5 6 7 8 9 10 11 12 13 14 15 16 17 18 19 20 21 22 23 24 25 26 27 28 29 30 31 32 33 34 35 36 37 38 39 40 41 42 43 44 45 46 47 48 49 50

000
ASUS43 KMKX 250611
RWRWI

WISCONSIN REGIONAL WEATHER ROUNDUP
NATIONAL WEATHER SERVICE MILWAUKEE/SULLIVAN WI
1200 AM CST SUN JAN 25 2015

NOTE: "FAIR" INDICATES FEW OR NO CLOUDS BELOW 12,000 FEET WITH NO
SIGNIFICANT WEATHER AND/OR OBSTRUCTIONS TO VISIBILITY.

WIZ001-002-006>008-014>016-023>028-250700-
NORTHWEST WISCONSIN

CITY           SKY/WX    TMP DP  RH WIND       PRES   REMARKS
SUPERIOR ARPT  CLOUDY    24  16  72 E16       29.86R WCI  11
6HR MIN TEMP:  24; 6HR MAX TEMP:  29;

ASHLAND        CLOUDY    20  14  77 NE15      29.87R WCI   6
6HR MIN TEMP:  20; 6HR MAX TEMP:  25;

HAYWARD        CLOUDY    21  14  74 NE16G25   29.79R WCI   7
6HR MIN TEMP:  21; 6HR MAX TEMP:  32;

SIREN          CLOUDY    25  18  74 NE10G22   29.78R WCI  15
6HR MIN TEMP:  25; 6HR MAX TEMP:  36;

CUMBERLAND     MIX PCPN  28  23  80 NE12      29.72R WCI  18
RICE LAKE      CLOUDY    31  25  78 NE13      29.73R WCI  21
6HR MIN TEMP:  31; 6HR MAX TEMP:  35;

CHETEK         CLOUDY    30  21  69 NE12G18   29.72R WCI  20
6HR MIN TEMP:  30; 6HR MAX TEMP:  35;

LADYSMITH      CLOUDY    28  20  72 NE14G20   29.74R WCI  17
6HR MIN TEMP:  28; 6HR MAX TEMP:  36;

EAU CLAIRE     CLOUDY    35  29  78 NE13      29.68R WCI  26
6HR MIN TEMP:  31; 6HR MAX TEMP:  35;

MENOMONIE      CLOUDY    36  31  82 NE10      29.68R WCI  28
6HR MIN TEMP:  32; 6HR MAX TEMP:  36;

NEW RICHMOND   CLOUDY    33  29  85 NE13G20   29.70R WCI  24
6HR MIN TEMP:  32; 6HR MAX TEMP:  35;

OSCEOLA        CLOUDY    32  28  84 NE15      29.74R WCI  22
6HR MIN TEMP:  32; 6HR MAX TEMP:  37;

$$

WIZ003>005-009-010-017-018-250700-
NORTH CENTRAL WISCONSIN

CITY           SKY/WX    TMP DP  RH WIND       PRES   REMARKS
MANITOWISH WTR FLURRIES  14  10  83 NE9       29.78R WCI   2
6HR MIN TEMP:  14; 6HR MAX TEMP:  24;

ARBOR VITAE    CLOUDY    18  13  80 NE9       29.77R WCI   7
6HR MIN TEMP:  18; 6HR MAX TEMP:  29;

WOODRUFF       CLOUDY    18  13  80 NE9       29.77R WCI   7
6HR MIN TEMP:  18; 6HR MAX TEMP:  29;

RHINELANDER    CLOUDY    18  13  80 NE10      29.75R WCI   6
6HR MIN TEMP:  18; 6HR MAX TEMP:  33;

EAGLE RIVER    FLURRIES  14   8  76 E9        29.77R WCI   2
6HR MIN TEMP:  14; 6HR MAX TEMP:  25;

LAND O LAKES   FLURRIES  14   9  78 NE5       29.79R WCI   7
6HR MIN TEMP:  14; 6HR MAX TEMP:  23;

PHILLIPS       CLOUDY    21  16  82 NE10      29.74R WCI  10
6HR MIN TEMP:  21; 6HR MAX TEMP:  33;

TOMAHAWK       CLOUDY    22  16  78 CALM      29.74R
6HR MIN TEMP:  22; 6HR MAX TEMP:  34;

MEDFORD        CLOUDY    28  23  82 NE14      29.69R WCI  17
6HR MIN TEMP:  28; 6HR MAX TEMP:  33;

MERRILL        CLOUDY    27  20  76 NE12      29.72R WCI  16
6HR MIN TEMP:  27; 6HR MAX TEMP:  35;

$$

WIZ029-030-035-036-043>047-250700-
CENTRAL WISCONSIN

CITY           SKY/WX    TMP DP  RH WIND       PRES   REMARKS
WAUSAU         CLOUDY    30  24  78 E9        29.69R WCI  22
6HR MIN TEMP:  30; 6HR MAX TEMP:  35;

MOSINEE        CLOUDY    30  28  93 NE13      29.70R WCI  20
MARSHFIELD     CLOUDY    32  28  85 E21       29.67R WCI  20
6HR MIN TEMP:  32; 6HR MAX TEMP:  34;

STEVENS POINT  CLOUDY    28  23  83 E13G18    29.71R WCI  17
6HR MIN TEMP:  28; 6HR MAX TEMP:  33;

WAUPACA        CLOUDY    28  22  77 E9        29.74R WCI  20
6HR MIN TEMP:  28; 6HR MAX TEMP:  36;

WAUTOMA        CLOUDY    30  27  89 NE15      29.71R WCI  19
6HR MIN TEMP:  30; 6HR MAX TEMP:  35; 6HR PCP: TRACE;

WISC RAPIDS    CLOUDY    30  26  85 E13       29.70R WCI  20
6HR MIN TEMP:  30; 6HR MAX TEMP:  33; 6HR PCP: TRACE;

CAMP DOUGLAS   CLOUDY    29  29 100 E2        29.66R
6HR MIN TEMP:  26; 6HR MAX TEMP:  31;

$$

WIZ011>013-019>022-031-037>040-048>050-250700-
NORTHEAST WISCONSIN

CITY           SKY/WX    TMP DP  RH WIND       PRES   REMARKS
ANTIGO         CLOUDY    23  18  83 E13       29.72R WCI  11
6HR MIN TEMP:  23; 6HR MAX TEMP:  34;

SHAWANO        CLOUDY    27  20  75 E16       29.77R WCI  14
6HR MIN TEMP:  27; 6HR MAX TEMP:  37;

OCONTO         CLOUDY    21  13  71 NE9       29.80R WCI  11
6HR MIN TEMP:  21; 6HR MAX TEMP:  30;

STURGEON BAY   CLOUDY    21  12  68 NE12G17   29.80S WCI   9
6HR MIN TEMP:  21; 6HR MAX TEMP:  28;

GREEN BAY      CLOUDY    23  16  74 NE23G29   29.78R WCI   7
6HR MIN TEMP:  23; 6HR MAX TEMP:  35; 6HR PCP: TRACE;

MANITOWOC      CLOUDY    26  21  81 NE12G17   29.75S WCI  16
6HR MIN TEMP:  26; 6HR MAX TEMP:  36;

APPLETON       CLOUDY    27  18  69 E18       29.74R WCI  13
CLINTONVILLE   CLOUDY    28  21  74 E14       29.76R WCI  17
OSHKOSH        CLOUDY    28  23  81 E15G22    29.72R WCI  16
6HR MIN TEMP:  28; 6HR MAX TEMP:  35; 6HR PCP: TRACE;

$$

WIZ032>034-041-042-053>061-250700-
SOUTHWEST WISCONSIN

CITY           SKY/WX    TMP DP  RH WIND       PRES   REMARKS
LA CROSSE      CLOUDY    37  30  75 E7        29.64R WCI  32
6HR MIN TEMP:  32; 6HR MAX TEMP:  37;

SPARTA         CLOUDY    32  30  94 NE5       29.66R WCI  27
6HR MIN TEMP:  29; 6HR MAX TEMP:  33;

VIROQUA        CLOUDY    32  32 100 E10       29.62R WCI  24
6HR MIN TEMP:  32; 6HR MAX TEMP:  37;

BOSCOBEL       CLOUDY    35  30  82 NE6       29.64R WCI  30
6HR MIN TEMP:  32; 6HR MAX TEMP:  38;

PRAIRIE DU CHI CLOUDY    32  30  93 CALM      29.61S
6HR MIN TEMP:  32; 6HR MAX TEMP:  39;

PLATTEVILLE    CLOUDY    34  32  93 E9        29.61S WCI  26
6HR MIN TEMP:  34; 6HR MAX TEMP:  37;

$$

WIZ056-057-062-063-064-067-068-250700-
SOUTH CENTRAL WISCONSIN

CITY           SKY/WX    TMP DP  RH WIND       PRES   REMARKS
REEDSBURG      CLOUDY    31  30  94 CALM      29.65R
6HR MIN TEMP:  30; 6HR MAX TEMP:  32;

BARABOO/DELLS  MOCLDY    31  29  92 E6        29.65R FOG     WCI  25
6HR MIN TEMP:  29; 6HR MAX TEMP:  32;

LONE ROCK      CLOUDY    33  30  88 E6        29.65R WCI  28
6HR MIN TEMP:  30; 6HR MAX TEMP:  34;

MINERAL POINT  CLOUDY    34  32  93 E10       29.61S WCI  26
MADISON        CLOUDY    32  29  88 E5        29.65S WCI  27
6HR MIN TEMP:  28; 6HR MAX TEMP:  33;

MIDDLETON      CLOUDY    33  32  97 E5        29.65F WCI  28
6HR MIN TEMP:  30; 6HR MAX TEMP:  33;

WATERTOWN      CLOUDY    32  32 100 E8        29.67R WCI  25
6HR MIN TEMP:  29; 6HR MAX TEMP:  33;

MONROE         CLOUDY    32  32 100 E8        29.63S FOG     WCI  25
JANESVILLE     MOCLDY    32  32 100 E7        29.65S WCI  26
$$

WIZ051-052-058>065-066-070>072-250700-
SOUTHEAST WISCONSIN

CITY           SKY/WX    TMP DP  RH WIND       PRES   REMARKS
MILWAUKEE      CLOUDY    34  29  82 NE16G25   29.69R WCI  24
6HR MIN TEMP:  34; 6HR MAX TEMP:  36;

WAUKESHA       CLOUDY    32  30  93 NE14      29.68S WCI  22
MILWAUKEE/TIMM CLOUDY    32  28  86 NE14G22   29.69S WCI  22
RACINE         CLOUDY    34  29  82 NW3       29.69S
6HR MIN TEMP:  33; 6HR MAX TEMP:  34;

BURLINGTON     CLEAR     27  27  99 CALM      29.67S FOG
6HR MIN TEMP:  27; 6HR MAX TEMP:  32;

KENOSHA        MOCLDY    31  30  96 CALM      29.67S
6HR MIN TEMP:  29; 6HR MAX TEMP:  33;

FOND DU LAC    CLOUDY    29  23  78 NE13      29.71R WCI  19
6HR MIN TEMP:  29; 6HR MAX TEMP:  35; 6HR PCP: TRACE;

SHEBOYGAN      CLOUDY    27  23  85 NE24      29.73R WCI  12
6HR MIN TEMP:  27; 6HR MAX TEMP:  36; 6HR PCP: TRACE;

WEST BEND      MIX PCPN  30  27  86 NE13G22   29.69S WCI  20
JUNEAU         CLOUDY    31  28  88 E14G20    29.69R WCI  21
6HR MIN TEMP:  31; 6HR MAX TEMP:  33;

$$

LSZ147-162-250700-
LAKE SUPERIOR

STATION/POSITION TIME  TEMP    WIND        PRES    WAVE
                       AIR SEA DIR/SP/G            HT/PER
                 (UTC) (F)     (DEG/KT/KT) (MB)    (FT/S)
DEVILS ISLAND    0600   19      70/ 16/ 20 1014.0R
PORT WING        0520   22      70/ 11/ 23 1011.5R
SAXON HARBOR     0500   20      90/  7/ 16 1010.8R
$$

LMZ867-665-643>646-250700-
LAKE MICHIGAN

STATION/POSITION TIME  TEMP    WIND        PRES    WAVE



USA.gov is the U.S. government's official web portal to all federal, state and local government web resources and services.